Time,TemperatureF,DewpointF,PressureIn,WindDirection,WindDirectionDegrees,WindSpeedMPH,WindSpeedGustMPH,Humidity,HourlyPrecipIn,Conditions,Clouds,dailyrainin,SoftwareType,DateUTC
2013-07-08 00:00:00,81.7,74.2,30.08,SE,128,1.0,1.0,78,0.00,,,0.05,Wunderground v.1.15,2013-07-08 04:00:00,
2013-07-08 00:01:00,81.7,74.2,30.08,ESE,115,1.0,1.0,78,0.00,,,0.05,Wunderground v.1.15,2013-07-08 04:01:00,
2013-07-08 00:02:00,81.7,74.2,30.08,ENE,58,2.0,2.0,78,0.00,,,0.05,Wunderground v.1.15,2013-07-08 04:02:00,
2013-07-08 00:03:00,81.7,74.2,30.08,East,93,2.0,2.0,78,0.00,,,0.05,Wunderground v.1.15,2013-07-08 04:03:00,
2013-07-08 00:07:00,81.7,73.8,30.08,SE,124,2.0,2.0,77,0.00,,,0.00,Wunderground v.1.15,2013-07-08 04:07:00,
2013-07-08 00:09:00,81.7,73.8,30.08,ESE,114,2.0,3.0,77,0.00,,,0.00,Wunderground v.1.15,2013-07-08 04:09:00,
2013-07-08 00:11:00,81.7,73.4,30.08,SE,125,2.0,3.0,76,0.00,,,0.00,Wunderground v.1.15,2013-07-08 04:11:00,
2013-07-08 00:12:00,81.7,73.4,30.08,ESE,119,2.0,3.0,76,0.00,,,0.00,Wunderground v.1.15,2013-07-08 04:12:00,
2013-07-08 00:13:00,81.8,73.5,30.08,East,91,2.0,3.0,76,0.00,,,0.00,Wunderground v.1.15,2013-07-08 04:13:00,
2013-07-08 00:14:00,81.7,73.4,30.08,ESE,118,2.0,6.0,76,0.00,,,0.00,Wunderground v.1.15,2013-07-08 04:14:00,
2013-07-08 00:16:00,81.7,73.0,30.08,SE,143,2.0,6.0,75,0.00,,,0.00,Wunderground v.1.15,2013-07-08 04:16:00,
2013-07-08 00:18:00,81.7,73.0,30.08,ESE,103,2.0,6.0,75,0.00,,,0.00,Wunderground v.1.15,2013-07-08 04:18:00,
2013-07-08 00:19:00,81.7,73.0,30.08,SE,134,2.0,6.0,75,0.00,,,0.00,Wunderground v.1.15,2013-07-08 04:19:00,
2013-07-08 00:20:00,81.7,73.0,30.08,ESE,114,2.0,2.0,75,0.00,,,0.00,Wunderground v.1.15,2013-07-08 04:20:00,
2013-07-08 00:22:00,81.7,73.0,30.08,ENE,68,2.0,2.0,75,0.00,,,0.00,Wunderground v.1.15,2013-07-08 04:22:00,
2013-07-08 00:26:00,81.7,73.0,30.08,ENE,68,2.0,3.0,75,0.00,,,0.00,Wunderground v.1.15,2013-07-08 04:26:00,
2013-07-08 00:27:00,81.7,73.0,30.08,ESE,108,2.0,3.0,75,0.00,,,0.00,Wunderground v.1.15,2013-07-08 04:27:00,
2013-07-08 00:28:00,81.7,73.0,30.08,ESE,117,1.0,3.0,75,0.00,,,0.00,Wunderground v.1.15,2013-07-08 04:28:00,
2013-07-08 00:29:00,81.6,72.9,30.08,ESE,108,1.0,3.0,75,0.00,,,0.00,Wunderground v.1.15,2013-07-08 04:29:00,
2013-07-08 00:32:00,81.6,73.3,30.09,ESE,113,1.0,6.0,76,0.00,,,0.00,Wunderground v.1.15,2013-07-08 04:32:00,
2013-07-08 00:34:00,81.5,73.2,30.09,SE,136,1.0,6.0,76,0.00,,,0.00,Wunderground v.1.15,2013-07-08 04:34:00,
2013-07-08 00:38:00,81.4,73.1,30.09,ESE,110,0.0,6.0,76,0.00,,,0.00,Wunderground v.1.15,2013-07-08 04:38:00,
2013-07-08 00:39:00,81.4,73.1,30.09,ESE,121,0.0,6.0,76,0.00,,,0.00,Wunderground v.1.15,2013-07-08 04:39:00,
2013-07-08 00:41:00,81.3,73.4,30.09,ESE,113,0.0,6.0,77,0.00,,,0.00,Wunderground v.1.15,2013-07-08 04:41:00,
2013-07-08 00:42:00,81.3,73.4,30.09,SE,124,1.0,6.0,77,0.00,,,0.00,Wunderground v.1.15,2013-07-08 04:42:00,
2013-07-08 00:44:00,81.3,73.4,30.09,ESE,114,0.0,6.0,77,0.00,,,0.00,Wunderground v.1.15,2013-07-08 04:44:00,
2013-07-08 00:45:00,81.2,73.3,30.08,SE,146,0.0,6.0,77,0.00,,,0.00,Wunderground v.1.15,2013-07-08 04:45:00,
2013-07-08 00:47:00,81.2,73.3,30.08,SE,124,0.0,6.0,77,0.00,,,0.00,Wunderground v.1.15,2013-07-08 04:47:00,
2013-07-08 00:48:00,81.1,73.2,30.08,ESE,113,0.0,6.0,77,0.00,,,0.00,Wunderground v.1.15,2013-07-08 04:48:00,
2013-07-08 00:52:00,81.0,73.5,30.08,ENE,58,0.0,6.0,78,0.00,,,0.00,Wunderground v.1.15,2013-07-08 04:52:00,
2013-07-08 00:53:00,81.0,73.5,30.08,ESE,113,0.0,6.0,78,0.00,,,0.00,Wunderground v.1.15,2013-07-08 04:53:00,
2013-07-08 00:55:00,81.0,73.5,30.08,ESE,108,0.0,6.0,78,0.00,,,0.00,Wunderground v.1.15,2013-07-08 04:55:00,
2013-07-08 00:58:00,81.0,73.5,30.08,East,83,1.0,6.0,78,0.00,,,0.00,Wunderground v.1.15,2013-07-08 04:58:00,
2013-07-08 00:59:00,81.0,73.5,30.08,SE,138,1.0,6.0,78,0.00,,,0.00,Wunderground v.1.15,2013-07-08 04:59:00,
2013-07-08 01:02:00,81.0,73.5,30.08,SE,134,1.0,1.0,78,0.00,,,0.00,Wunderground v.1.15,2013-07-08 05:02:00,
2013-07-08 01:04:00,80.9,73.0,30.08,ESE,119,1.0,2.0,77,0.00,,,0.00,Wunderground v.1.15,2013-07-08 05:04:00,
2013-07-08 01:07:00,80.9,73.4,30.08,SSE,155,1.0,2.0,78,0.00,,,0.00,Wunderground v.1.15,2013-07-08 05:07:00,
2013-07-08 01:08:00,80.9,73.0,30.08,ESE,110,0.0,2.0,77,0.00,,,0.00,Wunderground v.1.15,2013-07-08 05:08:00,
2013-07-08 01:10:00,80.9,73.0,30.08,ESE,103,0.0,0.0,77,0.00,,,0.00,Wunderground v.1.15,2013-07-08 05:10:00,
2013-07-08 01:12:00,80.8,72.9,30.08,East,84,0.0,1.0,77,0.00,,,0.00,Wunderground v.1.15,2013-07-08 05:12:00,
2013-07-08 01:14:00,80.8,72.9,30.08,SE,129,0.0,1.0,77,0.00,,,0.00,Wunderground v.1.15,2013-07-08 05:14:00,
2013-07-08 01:15:00,80.8,72.9,30.08,ESE,110,0.0,1.0,77,0.00,,,0.00,Wunderground v.1.15,2013-07-08 05:15:00,
2013-07-08 01:16:00,80.8,72.9,30.08,East,95,0.0,1.0,77,0.00,,,0.00,Wunderground v.1.15,2013-07-08 05:16:00,
2013-07-08 01:20:00,80.7,72.8,30.08,ESE,111,0.0,1.0,77,0.00,,,0.00,Wunderground v.1.15,2013-07-08 05:20:00,
2013-07-08 01:21:00,80.7,72.8,30.08,East,98,1.0,1.0,77,0.00,,,0.00,Wunderground v.1.15,2013-07-08 05:21:00,
2013-07-08 01:23:00,80.6,72.7,30.08,East,80,1.0,1.0,77,0.00,,,0.00,Wunderground v.1.15,2013-07-08 05:23:00,
2013-07-08 01:24:00,80.6,72.7,30.08,ENE,78,1.0,2.0,77,0.00,,,0.00,Wunderground v.1.15,2013-07-08 05:24:00,
2013-07-08 01:29:00,80.5,72.6,30.08,East,79,1.0,2.0,77,0.00,,,0.00,Wunderground v.1.15,2013-07-08 05:29:00,
2013-07-08 01:30:00,80.5,72.6,30.08,East,85,1.0,1.0,77,0.00,,,0.00,Wunderground v.1.15,2013-07-08 05:30:00,
2013-07-08 01:31:00,80.5,72.6,30.08,East,85,1.0,6.0,77,0.00,,,0.00,Wunderground v.1.15,2013-07-08 05:31:00,
2013-07-08 01:32:00,80.5,72.6,30.08,East,85,0.0,6.0,77,0.00,,,0.00,Wunderground v.1.15,2013-07-08 05:32:00,
2013-07-08 01:37:00,80.4,72.9,30.08,ESE,113,0.0,6.0,78,0.00,,,0.00,Wunderground v.1.15,2013-07-08 05:37:00,
2013-07-08 01:39:00,80.3,72.8,30.08,ESE,113,0.0,6.0,78,0.00,,,0.00,Wunderground v.1.15,2013-07-08 05:39:00,
2013-07-08 01:40:00,80.3,72.8,30.08,East,91,0.0,6.0,78,0.00,,,0.00,Wunderground v.1.15,2013-07-08 05:40:00,
2013-07-08 01:41:00,80.3,72.8,30.08,ENE,77,0.0,6.0,78,0.00,,,0.00,Wunderground v.1.15,2013-07-08 05:41:00,
2013-07-08 01:43:00,80.3,72.8,30.08,East,80,0.0,6.0,78,0.00,,,0.00,Wunderground v.1.15,2013-07-08 05:43:00,
2013-07-08 01:44:00,80.3,72.8,30.08,East,80,0.0,6.0,78,0.00,,,0.00,Wunderground v.1.15,2013-07-08 05:44:00,
2013-07-08 01:46:00,80.3,72.8,30.08,East,79,0.0,6.0,78,0.00,,,0.00,Wunderground v.1.15,2013-07-08 05:46:00,
2013-07-08 01:49:00,80.2,72.7,30.08,East,81,0.0,6.0,78,0.00,,,0.00,Wunderground v.1.15,2013-07-08 05:49:00,
2013-07-08 01:50:00,80.2,72.7,30.08,East,82,0.0,6.0,78,0.00,,,0.00,Wunderground v.1.15,2013-07-08 05:50:00,
2013-07-08 01:52:00,80.1,73.0,30.08,East,81,0.0,6.0,79,0.00,,,0.00,Wunderground v.1.15,2013-07-08 05:52:00,
2013-07-08 01:56:00,79.9,72.8,30.08,East,84,0.0,6.0,79,0.00,,,0.00,Wunderground v.1.15,2013-07-08 05:56:00,
2013-07-08 01:57:00,79.9,72.8,30.08,East,84,0.0,6.0,79,0.00,,,0.00,Wunderground v.1.15,2013-07-08 05:57:00,
2013-07-08 01:59:00,79.8,72.7,30.08,East,84,0.0,6.0,79,0.00,,,0.00,Wunderground v.1.15,2013-07-08 05:59:00,
2013-07-08 02:02:00,79.7,73.0,30.08,East,84,0.0,0.0,80,0.00,,,0.00,Wunderground v.1.15,2013-07-08 06:02:00,
2013-07-08 02:03:00,79.6,72.9,30.08,East,84,0.0,0.0,80,0.00,,,0.00,Wunderground v.1.15,2013-07-08 06:03:00,
2013-07-08 02:05:00,79.6,72.9,30.08,East,84,0.0,0.0,80,0.00,,,0.00,Wunderground v.1.15,2013-07-08 06:05:00,
2013-07-08 02:06:00,79.5,72.8,30.08,East,84,0.0,0.0,80,0.00,,,0.00,Wunderground v.1.15,2013-07-08 06:06:00,
2013-07-08 02:09:00,79.4,73.1,30.08,East,84,0.0,0.0,81,0.00,,,0.00,Wunderground v.1.15,2013-07-08 06:09:00,
2013-07-08 02:11:00,79.3,73.0,30.08,East,84,0.0,0.0,81,0.00,,,0.00,Wunderground v.1.15,2013-07-08 06:11:00,
2013-07-08 02:12:00,79.3,73.0,30.08,East,84,0.0,0.0,81,0.00,,,0.00,Wunderground v.1.15,2013-07-08 06:12:00,
2013-07-08 02:13:00,79.3,73.0,30.08,East,84,0.0,0.0,81,0.00,,,0.00,Wunderground v.1.15,2013-07-08 06:13:00,
2013-07-08 02:17:00,79.2,73.2,30.08,East,84,0.0,0.0,82,0.00,,,0.00,Wunderground v.1.15,2013-07-08 06:17:00,
2013-07-08 02:18:00,79.2,73.2,30.08,East,84,0.0,0.0,82,0.00,,,0.00,Wunderground v.1.15,2013-07-08 06:18:00,
2013-07-08 02:21:00,79.2,73.2,30.08,East,84,0.0,0.0,82,0.00,,,0.00,Wunderground v.1.15,2013-07-08 06:21:00,
2013-07-08 02:22:00,79.2,73.2,30.08,East,84,0.0,0.0,82,0.00,,,0.00,Wunderground v.1.15,2013-07-08 06:22:00,
2013-07-08 02:24:00,79.2,73.2,30.08,East,84,0.0,0.0,82,0.00,,,0.00,Wunderground v.1.15,2013-07-08 06:24:00,
2013-07-08 02:27:00,79.2,73.2,30.08,East,84,0.0,0.0,82,0.00,,,0.00,Wunderground v.1.15,2013-07-08 06:27:00,
2013-07-08 02:28:00,79.2,73.2,30.08,East,84,0.0,0.0,82,0.00,,,0.00,Wunderground v.1.15,2013-07-08 06:28:00,
2013-07-08 02:31:00,79.2,73.2,30.08,East,81,0.0,2.0,82,0.00,,,0.00,Wunderground v.1.15,2013-07-08 06:31:00,
2013-07-08 02:33:00,79.2,73.2,30.08,East,81,0.0,2.0,82,0.00,,,0.00,Wunderground v.1.15,2013-07-08 06:33:00,
2013-07-08 02:34:00,79.2,73.2,30.08,East,81,0.0,2.0,82,0.00,,,0.00,Wunderground v.1.15,2013-07-08 06:34:00,
2013-07-08 02:36:00,79.1,73.1,30.08,East,81,0.0,2.0,82,0.00,,,0.00,Wunderground v.1.15,2013-07-08 06:36:00,
2013-07-08 02:37:00,79.1,73.1,30.08,East,82,0.0,2.0,82,0.00,,,0.00,Wunderground v.1.15,2013-07-08 06:37:00,
2013-07-08 02:39:00,79.0,73.4,30.08,East,81,0.0,2.0,83,0.00,,,0.00,Wunderground v.1.15,2013-07-08 06:39:00,
2013-07-08 02:41:00,79.0,73.4,30.08,East,82,0.0,2.0,83,0.00,,,0.00,Wunderground v.1.15,2013-07-08 06:41:00,
2013-07-08 02:43:00,78.9,73.3,30.08,East,81,0.0,2.0,83,0.00,,,0.00,Wunderground v.1.15,2013-07-08 06:43:00,
2013-07-08 02:44:00,78.9,73.3,30.08,East,81,0.0,2.0,83,0.00,,,0.00,Wunderground v.1.15,2013-07-08 06:44:00,
2013-07-08 02:46:00,78.8,73.2,30.08,East,82,0.0,2.0,83,0.00,,,0.00,Wunderground v.1.15,2013-07-08 06:46:00,
2013-07-08 02:50:00,78.7,73.1,30.07,East,81,0.0,2.0,83,0.00,,,0.00,Wunderground v.1.15,2013-07-08 06:50:00,
2013-07-08 02:52:00,78.7,73.1,30.07,ENE,77,0.0,2.0,83,0.00,,,0.00,Wunderground v.1.15,2013-07-08 06:52:00,
2013-07-08 02:53:00,78.6,73.0,30.07,ENE,77,0.0,2.0,83,0.00,,,0.00,Wunderground v.1.15,2013-07-08 06:53:00,
2013-07-08 02:55:00,78.6,73.0,30.07,ENE,67,0.0,2.0,83,0.00,,,0.00,Wunderground v.1.15,2013-07-08 06:55:00,
2013-07-08 02:56:00,78.6,73.0,30.07,ENE,69,0.0,2.0,83,0.00,,,0.00,Wunderground v.1.15,2013-07-08 06:56:00,
2013-07-08 02:57:00,78.6,73.0,30.07,ENE,69,0.0,2.0,83,0.00,,,0.00,Wunderground v.1.15,2013-07-08 06:57:00,
2013-07-08 02:59:00,78.6,73.0,30.07,ENE,69,0.0,2.0,83,0.00,,,0.00,Wunderground v.1.15,2013-07-08 06:59:00,
2013-07-08 03:00:00,78.6,73.0,30.07,ENE,69,0.0,0.0,83,0.00,,,0.00,Wunderground v.1.15,2013-07-08 07:00:00,
2013-07-08 03:02:00,78.6,73.0,30.08,ENE,69,0.0,0.0,83,0.00,,,0.00,Wunderground v.1.15,2013-07-08 07:02:00,
2013-07-08 03:03:00,78.6,73.0,30.07,ENE,69,0.0,0.0,83,0.00,,,0.00,Wunderground v.1.15,2013-07-08 07:03:00,
2013-07-08 03:05:00,78.6,73.0,30.07,ENE,77,0.0,0.0,83,0.00,,,0.00,Wunderground v.1.15,2013-07-08 07:05:00,
2013-07-08 03:07:00,78.6,73.0,30.08,ENE,77,0.0,1.0,83,0.00,,,0.00,Wunderground v.1.15,2013-07-08 07:07:00,
2013-07-08 03:08:00,78.6,73.0,30.07,ENE,77,0.0,1.0,83,0.00,,,0.00,Wunderground v.1.15,2013-07-08 07:08:00,
2013-07-08 03:14:00,78.5,72.9,30.08,East,91,0.0,2.0,83,0.00,,,0.00,Wunderground v.1.15,2013-07-08 07:14:00,
2013-07-08 03:15:00,78.6,73.0,30.08,East,91,0.0,2.0,83,0.00,,,0.00,Wunderground v.1.15,2013-07-08 07:15:00,
2013-07-08 03:16:00,78.6,73.0,30.08,East,91,0.0,2.0,83,0.00,,,0.00,Wunderground v.1.15,2013-07-08 07:16:00,
2013-07-08 03:19:00,78.6,73.0,30.08,East,84,0.0,2.0,83,0.00,,,0.00,Wunderground v.1.15,2013-07-08 07:19:00,
2013-07-08 03:22:00,78.7,73.1,30.08,East,84,0.0,0.0,83,0.00,,,0.00,Wunderground v.1.15,2013-07-08 07:22:00,
2013-07-08 03:23:00,78.6,73.0,30.08,East,84,0.0,0.0,83,0.00,,,0.00,Wunderground v.1.15,2013-07-08 07:23:00,
2013-07-08 03:25:00,78.7,73.1,30.08,East,84,0.0,0.0,83,0.00,,,0.00,Wunderground v.1.15,2013-07-08 07:25:00,
2013-07-08 03:28:00,78.6,73.0,30.07,East,84,0.0,1.0,83,0.00,,,0.00,Wunderground v.1.15,2013-07-08 07:28:00,
2013-07-08 03:29:00,78.6,73.0,30.07,East,84,0.0,1.0,83,0.00,,,0.00,Wunderground v.1.15,2013-07-08 07:29:00,
2013-07-08 03:31:00,78.6,72.6,30.07,NE,50,0.0,1.0,82,0.00,,,0.00,Wunderground v.1.15,2013-07-08 07:31:00,
2013-07-08 03:32:00,78.7,72.7,30.07,ENE,70,0.0,1.0,82,0.00,,,0.00,Wunderground v.1.15,2013-07-08 07:32:00,
2013-07-08 03:36:00,78.7,72.7,30.07,East,85,0.0,1.0,82,0.00,,,0.00,Wunderground v.1.15,2013-07-08 07:36:00,
2013-07-08 03:37:00,78.7,72.7,30.07,ESE,103,0.0,1.0,82,0.00,,,0.00,Wunderground v.1.15,2013-07-08 07:37:00,
2013-07-08 03:39:00,78.7,72.7,30.07,East,96,0.0,1.0,82,0.00,,,0.00,Wunderground v.1.15,2013-07-08 07:39:00,
2013-07-08 03:42:00,78.6,72.6,30.07,East,97,0.0,0.0,82,0.00,,,0.00,Wunderground v.1.15,2013-07-08 07:42:00,
2013-07-08 03:43:00,78.7,72.7,30.07,ENE,77,0.0,0.0,82,0.00,,,0.00,Wunderground v.1.15,2013-07-08 07:43:00,
2013-07-08 03:46:00,78.7,72.7,30.07,East,96,0.0,1.0,82,0.00,,,0.00,Wunderground v.1.15,2013-07-08 07:46:00,
2013-07-08 03:47:00,78.7,72.7,30.07,ESE,107,0.0,1.0,82,0.00,,,0.00,Wunderground v.1.15,2013-07-08 07:47:00,
2013-07-08 03:51:00,78.7,72.7,30.07,East,94,0.0,0.0,82,0.00,,,0.00,Wunderground v.1.15,2013-07-08 07:51:00,
2013-07-08 03:53:00,78.6,72.6,30.07,East,95,0.0,0.0,82,0.00,,,0.00,Wunderground v.1.15,2013-07-08 07:53:00,
2013-07-08 03:54:00,78.6,72.6,30.07,East,95,0.0,0.0,82,0.00,,,0.00,Wunderground v.1.15,2013-07-08 07:54:00,
2013-07-08 03:55:00,78.6,72.6,30.07,East,95,0.0,0.0,82,0.00,,,0.00,Wunderground v.1.15,2013-07-08 07:55:00,
2013-07-08 03:58:00,78.6,72.6,30.07,SE,140,0.0,0.0,82,0.00,,,0.00,Wunderground v.1.15,2013-07-08 07:58:00,
2013-07-08 03:59:00,78.7,72.7,30.07,SE,131,0.0,0.0,82,0.00,,,0.00,Wunderground v.1.15,2013-07-08 07:59:00,
2013-07-08 04:00:00,78.6,72.6,30.07,ESE,122,0.0,2.0,82,0.00,,,0.00,Wunderground v.1.15,2013-07-08 08:00:00,
2013-07-08 04:01:00,78.7,72.7,30.07,ESE,102,0.0,2.0,82,0.00,,,0.00,Wunderground v.1.15,2013-07-08 08:01:00,
2013-07-08 04:03:00,78.7,72.7,30.07,ESE,103,0.0,2.0,82,0.00,,,0.00,Wunderground v.1.15,2013-07-08 08:03:00,
2013-07-08 04:05:00,78.7,72.7,30.07,East,100,0.0,2.0,82,0.00,,,0.00,Wunderground v.1.15,2013-07-08 08:05:00,
2013-07-08 04:06:00,78.8,72.8,30.07,ESE,118,0.0,2.0,82,0.00,,,0.00,Wunderground v.1.15,2013-07-08 08:06:00,
2013-07-08 04:08:00,78.8,72.8,30.07,East,100,1.0,2.0,82,0.00,,,0.00,Wunderground v.1.15,2013-07-08 08:08:00,
2013-07-08 04:12:00,78.8,72.8,30.07,East,95,0.0,1.0,82,0.00,,,0.00,Wunderground v.1.15,2013-07-08 08:12:00,
2013-07-08 04:13:00,78.8,72.8,30.07,ESE,111,0.0,2.0,82,0.00,,,0.00,Wunderground v.1.15,2013-07-08 08:13:00,
2013-07-08 04:15:00,78.8,72.8,30.07,ESE,112,0.0,2.0,82,0.00,,,0.00,Wunderground v.1.15,2013-07-08 08:15:00,
2013-07-08 04:16:00,78.9,72.9,30.07,SE,125,0.0,2.0,82,0.00,,,0.00,Wunderground v.1.15,2013-07-08 08:16:00,
2013-07-08 04:17:00,78.9,72.9,30.07,SE,131,0.0,2.0,82,0.00,,,0.00,Wunderground v.1.15,2013-07-08 08:17:00,
2013-07-08 04:19:00,78.9,72.9,30.07,SE,128,0.0,2.0,82,0.00,,,0.00,Wunderground v.1.15,2013-07-08 08:19:00,
2013-07-08 04:21:00,78.9,72.9,30.07,ESE,110,0.0,0.0,82,0.00,,,0.00,Wunderground v.1.15,2013-07-08 08:21:00,
2013-07-08 04:22:00,78.8,72.8,30.07,ESE,110,0.0,0.0,82,0.00,,,0.00,Wunderground v.1.15,2013-07-08 08:22:00,
2013-07-08 04:26:00,78.9,72.6,30.06,East,87,0.0,2.0,81,0.00,,,0.00,Wunderground v.1.15,2013-07-08 08:26:00,
2013-07-08 04:27:00,78.9,72.6,30.07,East,93,1.0,2.0,81,0.00,,,0.00,Wunderground v.1.15,2013-07-08 08:27:00,
2013-07-08 04:29:00,78.9,72.6,30.07,ESE,114,1.0,2.0,81,0.00,,,0.00,Wunderground v.1.15,2013-07-08 08:29:00,
2013-07-08 04:32:00,79.0,72.7,30.06,ESE,110,1.0,2.0,81,0.00,,,0.00,Wunderground v.1.15,2013-07-08 08:32:00,
2013-07-08 04:35:00,79.1,72.8,30.06,SE,127,1.0,2.0,81,0.00,,,0.00,Wunderground v.1.15,2013-07-08 08:35:00,
2013-07-08 04:37:00,79.1,72.8,30.06,East,88,1.0,2.0,81,0.00,,,0.00,Wunderground v.1.15,2013-07-08 08:37:00,
2013-07-08 04:42:00,79.1,72.8,30.06,East,88,1.0,2.0,81,0.00,,,0.00,Wunderground v.1.15,2013-07-08 08:42:00,
2013-07-08 04:43:00,79.1,72.8,30.06,East,82,1.0,2.0,81,0.00,,,0.00,Wunderground v.1.15,2013-07-08 08:43:00,
2013-07-08 04:47:00,79.1,72.8,30.06,ESE,107,1.0,2.0,81,0.00,,,0.00,Wunderground v.1.15,2013-07-08 08:47:00,
2013-07-08 04:49:00,79.1,72.8,30.06,ESE,106,1.0,2.0,81,0.00,,,0.00,Wunderground v.1.15,2013-07-08 08:49:00,
2013-07-08 04:51:00,79.0,72.7,30.06,SE,134,0.0,2.0,81,0.00,,,0.00,Wunderground v.1.15,2013-07-08 08:51:00,
2013-07-08 04:54:00,79.0,72.7,30.06,East,92,0.0,2.0,81,0.00,,,0.00,Wunderground v.1.15,2013-07-08 08:54:00,
2013-07-08 04:55:00,79.0,72.7,30.06,East,97,0.0,2.0,81,0.00,,,0.00,Wunderground v.1.15,2013-07-08 08:55:00,
2013-07-08 04:59:00,78.9,72.6,30.06,ESE,110,0.0,2.0,81,0.00,,,0.00,Wunderground v.1.15,2013-07-08 08:59:00,
2013-07-08 05:00:00,78.8,72.5,30.06,ESE,110,0.0,0.0,81,0.00,,,0.00,Wunderground v.1.15,2013-07-08 09:00:00,
2013-07-08 05:02:00,78.8,72.5,30.06,East,101,0.0,1.0,81,0.00,,,0.00,Wunderground v.1.15,2013-07-08 09:02:00,
2013-07-08 05:03:00,78.8,72.5,30.06,East,101,0.0,1.0,81,0.00,,,0.00,Wunderground v.1.15,2013-07-08 09:03:00,
2013-07-08 05:04:00,78.8,72.5,30.06,East,101,0.0,1.0,81,0.00,,,0.00,Wunderground v.1.15,2013-07-08 09:04:00,
2013-07-08 05:10:00,78.7,72.4,30.06,ESE,115,0.0,0.0,81,0.00,,,0.00,Wunderground v.1.15,2013-07-08 09:10:00,
2013-07-08 05:11:00,78.7,72.4,30.06,ESE,115,0.0,0.0,81,0.00,,,0.00,Wunderground v.1.15,2013-07-08 09:11:00,
2013-07-08 05:13:00,78.6,72.3,30.06,ESE,116,0.0,0.0,81,0.00,,,0.00,Wunderground v.1.15,2013-07-08 09:13:00,
2013-07-08 05:17:00,78.5,72.2,30.06,SE,128,0.0,0.0,81,0.00,,,0.00,Wunderground v.1.15,2013-07-08 09:17:00,
2013-07-08 05:18:00,78.5,72.2,30.06,ENE,59,0.0,0.0,81,0.00,,,0.00,Wunderground v.1.15,2013-07-08 09:18:00,
2013-07-08 05:19:00,78.5,72.2,30.06,ENE,59,0.0,0.0,81,0.00,,,0.00,Wunderground v.1.15,2013-07-08 09:19:00,
2013-07-08 05:23:00,78.4,72.1,30.06,East,94,0.0,1.0,81,0.00,,,0.00,Wunderground v.1.15,2013-07-08 09:23:00,
2013-07-08 05:24:00,78.5,72.2,30.06,East,99,0.0,1.0,81,0.00,,,0.00,Wunderground v.1.15,2013-07-08 09:24:00,
2013-07-08 05:25:00,78.4,72.1,30.06,East,88,0.0,1.0,81,0.00,,,0.00,Wunderground v.1.15,2013-07-08 09:25:00,
2013-07-08 05:26:00,78.4,72.1,30.06,East,92,0.0,1.0,81,0.00,,,0.00,Wunderground v.1.15,2013-07-08 09:26:00,
2013-07-08 05:28:00,78.4,72.1,30.06,East,98,0.0,1.0,81,0.00,,,0.00,Wunderground v.1.15,2013-07-08 09:28:00,
2013-07-08 05:29:00,78.4,72.1,30.06,SE,135,0.0,1.0,81,0.00,,,0.00,Wunderground v.1.15,2013-07-08 09:29:00,
2013-07-08 05:31:00,78.4,72.1,30.06,SE,133,0.0,4.0,81,0.00,,,0.00,Wunderground v.1.15,2013-07-08 09:31:00,
2013-07-08 05:33:00,78.3,72.0,30.06,SE,126,0.0,4.0,81,0.00,,,0.00,Wunderground v.1.15,2013-07-08 09:33:00,
2013-07-08 05:34:00,78.3,72.0,30.06,SE,126,0.0,4.0,81,0.00,,,0.00,Wunderground v.1.15,2013-07-08 09:34:00,
2013-07-08 05:35:00,78.3,72.0,30.06,SE,125,0.0,4.0,81,0.00,,,0.00,Wunderground v.1.15,2013-07-08 09:35:00,
2013-07-08 05:40:00,78.3,72.3,30.06,ESE,119,0.0,4.0,82,0.00,,,0.00,Wunderground v.1.15,2013-07-08 09:40:00,
2013-07-08 05:41:00,78.3,72.3,30.06,East,89,0.0,4.0,82,0.00,,,0.00,Wunderground v.1.15,2013-07-08 09:41:00,
2013-07-08 05:43:00,78.2,72.3,30.06,ESE,117,0.0,4.0,82,0.00,,,0.00,Wunderground v.1.15,2013-07-08 09:43:00,
2013-07-08 05:48:00,78.2,72.3,30.06,ESE,116,0.0,4.0,82,0.00,,,0.00,Wunderground v.1.15,2013-07-08 09:48:00,
2013-07-08 05:49:00,78.2,72.3,30.06,East,91,0.0,4.0,82,0.00,,,0.00,Wunderground v.1.15,2013-07-08 09:49:00,
2013-07-08 05:50:00,78.2,72.3,30.06,ENE,61,0.0,4.0,82,0.00,,,0.00,Wunderground v.1.15,2013-07-08 09:50:00,
2013-07-08 05:51:00,78.2,72.3,30.06,ENE,62,0.0,4.0,82,0.00,,,0.00,Wunderground v.1.15,2013-07-08 09:51:00,
2013-07-08 05:57:00,78.2,72.3,30.06,SE,124,0.0,4.0,82,0.00,,,0.00,Wunderground v.1.15,2013-07-08 09:57:00,
2013-07-08 05:58:00,78.2,72.3,30.06,SE,124,0.0,4.0,82,0.00,,,0.00,Wunderground v.1.15,2013-07-08 09:58:00,
2013-07-08 05:59:00,78.2,72.3,30.06,SE,124,0.0,4.0,82,0.00,,,0.00,Wunderground v.1.15,2013-07-08 09:59:00,
2013-07-08 06:03:00,78.1,72.2,30.06,ESE,113,0.0,0.0,82,0.00,,,0.00,Wunderground v.1.15,2013-07-08 10:03:00,
2013-07-08 06:04:00,78.1,72.2,30.06,ESE,113,0.0,0.0,82,0.00,,,0.00,Wunderground v.1.15,2013-07-08 10:04:00,
2013-07-08 06:06:00,78.1,72.2,30.06,ESE,113,0.0,0.0,82,0.00,,,0.00,Wunderground v.1.15,2013-07-08 10:06:00,
2013-07-08 06:08:00,78.0,72.1,30.06,SE,136,0.0,0.0,82,0.00,,,0.00,Wunderground v.1.15,2013-07-08 10:08:00,
2013-07-08 06:09:00,78.0,72.1,30.06,SE,136,0.0,0.0,82,0.00,,,0.00,Wunderground v.1.15,2013-07-08 10:09:00,
2013-07-08 06:14:00,77.9,72.3,30.06,SE,133,0.0,1.0,83,0.00,,,0.00,Wunderground v.1.15,2013-07-08 10:14:00,
2013-07-08 06:16:00,77.9,72.3,30.06,East,91,0.0,1.0,83,0.00,,,0.00,Wunderground v.1.15,2013-07-08 10:16:00,
2013-07-08 06:18:00,77.9,72.3,30.06,East,91,0.0,1.0,83,0.00,,,0.00,Wunderground v.1.15,2013-07-08 10:18:00,
2013-07-08 06:22:00,77.8,72.2,30.06,East,83,0.0,0.0,83,0.00,,,0.00,Wunderground v.1.15,2013-07-08 10:22:00,
2013-07-08 06:24:00,77.8,72.2,30.06,East,85,0.0,0.0,83,0.00,,,0.00,Wunderground v.1.15,2013-07-08 10:24:00,
2013-07-08 06:25:00,77.8,72.2,30.06,East,89,0.0,0.0,83,0.00,,,0.00,Wunderground v.1.15,2013-07-08 10:25:00,
2013-07-08 06:28:00,77.7,72.1,30.06,East,89,0.0,0.0,83,0.00,,,0.00,Wunderground v.1.15,2013-07-08 10:28:00,
2013-07-08 06:31:00,77.7,72.1,30.06,East,98,0.0,2.0,83,0.00,,,0.00,Wunderground v.1.15,2013-07-08 10:31:00,
2013-07-08 06:33:00,77.7,72.1,30.06,East,98,0.0,2.0,83,0.00,,,0.00,Wunderground v.1.15,2013-07-08 10:33:00,
2013-07-08 06:35:00,77.6,72.0,30.06,East,98,0.0,2.0,83,0.00,,,0.00,Wunderground v.1.15,2013-07-08 10:35:00,
2013-07-08 06:36:00,77.6,72.0,30.06,East,98,0.0,2.0,83,0.00,,,0.00,Wunderground v.1.15,2013-07-08 10:36:00,
2013-07-08 06:39:00,77.6,72.0,30.07,East,98,0.0,2.0,83,0.00,,,0.00,Wunderground v.1.15,2013-07-08 10:39:00,
2013-07-08 06:41:00,77.6,72.0,30.07,East,98,0.0,2.0,83,0.00,,,0.00,Wunderground v.1.15,2013-07-08 10:41:00,
2013-07-08 06:42:00,77.5,71.9,30.06,East,98,0.0,2.0,83,0.00,,,0.00,Wunderground v.1.15,2013-07-08 10:42:00,
2013-07-08 06:43:00,77.5,71.9,30.06,East,98,0.0,2.0,83,0.00,,,0.00,Wunderground v.1.15,2013-07-08 10:43:00,
2013-07-08 06:48:00,77.4,72.2,30.07,East,96,0.0,2.0,84,0.00,,,0.00,Wunderground v.1.15,2013-07-08 10:48:00,
2013-07-08 06:49:00,77.4,72.2,30.07,East,96,0.0,2.0,84,0.00,,,0.00,Wunderground v.1.15,2013-07-08 10:49:00,
2013-07-08 06:51:00,77.3,72.1,30.07,East,96,0.0,2.0,84,0.00,,,0.00,Wunderground v.1.15,2013-07-08 10:51:00,
2013-07-08 06:52:00,77.3,72.1,30.07,East,96,0.0,2.0,84,0.00,,,0.00,Wunderground v.1.15,2013-07-08 10:52:00,
2013-07-08 06:56:00,77.2,72.3,30.07,East,96,0.0,2.0,85,0.00,,,0.00,Wunderground v.1.15,2013-07-08 10:56:00,
2013-07-08 06:57:00,77.2,72.3,30.07,East,96,0.0,2.0,85,0.00,,,0.00,Wunderground v.1.15,2013-07-08 10:57:00,
2013-07-08 06:58:00,77.2,72.3,30.07,East,96,0.0,2.0,85,0.00,,,0.00,Wunderground v.1.15,2013-07-08 10:58:00,
2013-07-08 06:59:00,77.2,72.3,30.07,East,96,0.0,2.0,85,0.00,,,0.00,Wunderground v.1.15,2013-07-08 10:59:00,
2013-07-08 07:03:00,77.5,72.6,30.07,East,96,0.0,0.0,85,0.00,,,0.00,Wunderground v.1.15,2013-07-08 11:03:00,
2013-07-08 07:04:00,77.5,72.6,30.07,East,96,0.0,0.0,85,0.00,,,0.00,Wunderground v.1.15,2013-07-08 11:04:00,
2013-07-08 07:05:00,77.5,72.6,30.07,ENE,76,0.0,0.0,85,0.00,,,0.00,Wunderground v.1.15,2013-07-08 11:05:00,
2013-07-08 07:06:00,77.6,72.4,30.07,ENE,76,0.0,0.0,84,0.00,,,0.00,Wunderground v.1.15,2013-07-08 11:06:00,
2013-07-08 07:09:00,77.9,72.7,30.07,East,100,0.0,0.0,84,0.00,,,0.00,Wunderground v.1.15,2013-07-08 11:09:00,
2013-07-08 07:12:00,78.1,72.5,30.07,ENE,76,0.0,0.0,83,0.00,,,0.00,Wunderground v.1.15,2013-07-08 11:12:00,
2013-07-08 07:13:00,78.3,72.7,30.07,ENE,76,0.0,0.0,83,0.00,,,0.00,Wunderground v.1.15,2013-07-08 11:13:00,
2013-07-08 07:14:00,78.4,72.8,30.07,ENE,76,0.0,0.0,83,0.00,,,0.00,Wunderground v.1.15,2013-07-08 11:14:00,
2013-07-08 07:19:00,79.0,73.0,30.07,East,79,0.0,1.0,82,0.00,,,0.00,Wunderground v.1.15,2013-07-08 11:19:00,
2013-07-08 07:20:00,79.1,72.8,30.07,East,79,0.0,0.0,81,0.00,,,0.00,Wunderground v.1.15,2013-07-08 11:20:00,
2013-07-08 07:24:00,79.6,73.3,30.07,East,82,0.0,1.0,81,0.00,,,0.00,Wunderground v.1.15,2013-07-08 11:24:00,
2013-07-08 07:25:00,79.7,73.3,30.07,ENE,75,0.0,1.0,81,0.00,,,0.00,Wunderground v.1.15,2013-07-08 11:25:00,
2013-07-08 07:27:00,80.0,73.3,30.07,ENE,77,0.0,1.0,80,0.00,,,0.00,Wunderground v.1.15,2013-07-08 11:27:00,
2013-07-08 07:29:00,80.2,73.5,30.07,East,95,0.0,1.0,80,0.00,,,0.00,Wunderground v.1.15,2013-07-08 11:29:00,
2013-07-08 07:32:00,80.6,73.5,30.07,ESE,102,0.0,2.0,79,0.00,,,0.00,Wunderground v.1.15,2013-07-08 11:32:00,
2013-07-08 07:33:00,80.7,73.6,30.07,SE,124,0.0,2.0,79,0.00,,,0.00,Wunderground v.1.15,2013-07-08 11:33:00,
2013-07-08 07:34:00,80.8,73.7,30.07,East,91,0.0,2.0,79,0.00,,,0.00,Wunderground v.1.15,2013-07-08 11:34:00,
2013-07-08 07:38:00,81.1,74.0,30.07,ENE,63,1.0,2.0,79,0.00,,,0.00,Wunderground v.1.15,2013-07-08 11:38:00,
2013-07-08 07:39:00,81.2,73.7,30.07,ENE,68,1.0,2.0,78,0.00,,,0.00,Wunderground v.1.15,2013-07-08 11:39:00,
2013-07-08 07:41:00,81.3,73.8,30.07,ENE,78,1.0,1.0,78,0.00,,,0.00,Wunderground v.1.15,2013-07-08 11:41:00,
2013-07-08 07:46:00,81.7,74.2,30.07,SE,125,1.0,2.0,78,0.00,,,0.00,Wunderground v.1.15,2013-07-08 11:46:00,
2013-07-08 07:47:00,81.7,74.2,30.07,East,98,1.0,2.0,78,0.00,,,0.00,Wunderground v.1.15,2013-07-08 11:47:00,
2013-07-08 07:49:00,81.9,74.4,30.07,SE,131,1.0,2.0,78,0.00,,,0.00,Wunderground v.1.15,2013-07-08 11:49:00,
2013-07-08 07:50:00,82.0,74.1,30.07,East,85,1.0,2.0,77,0.00,,,0.00,Wunderground v.1.15,2013-07-08 11:50:00,
2013-07-08 07:56:00,82.5,74.2,30.07,ENE,77,1.0,4.0,76,0.00,,,0.00,Wunderground v.1.15,2013-07-08 11:56:00,
2013-07-08 07:57:00,82.5,74.2,30.07,East,86,1.0,4.0,76,0.00,,,0.00,Wunderground v.1.15,2013-07-08 11:57:00,
2013-07-08 07:58:00,82.6,74.3,30.07,ESE,115,1.0,4.0,76,0.00,,,0.00,Wunderground v.1.15,2013-07-08 11:58:00,
2013-07-08 08:02:00,82.8,74.1,30.08,ENE,75,2.0,6.0,75,0.00,,,0.00,Wunderground v.1.15,2013-07-08 12:02:00,
2013-07-08 08:04:00,82.8,74.1,30.08,ESE,114,2.0,6.0,75,0.00,,,0.00,Wunderground v.1.15,2013-07-08 12:04:00,
2013-07-08 08:05:00,82.9,74.2,30.07,SE,124,2.0,6.0,75,0.00,,,0.00,Wunderground v.1.15,2013-07-08 12:05:00,
2013-07-08 08:06:00,83.0,74.3,30.07,ENE,59,2.0,6.0,75,0.00,,,0.00,Wunderground v.1.15,2013-07-08 12:06:00,
2013-07-08 08:09:00,83.0,74.3,30.07,East,86,3.0,6.0,75,0.00,,,0.00,Wunderground v.1.15,2013-07-08 12:09:00,
2013-07-08 08:11:00,83.2,74.4,30.07,East,100,3.0,6.0,75,0.00,,,0.00,Wunderground v.1.15,2013-07-08 12:11:00,
2013-07-08 08:12:00,83.2,74.4,30.07,East,92,3.0,6.0,75,0.00,,,0.00,Wunderground v.1.15,2013-07-08 12:12:00,
2013-07-08 08:15:00,83.3,74.5,30.08,ENE,60,3.0,6.0,75,0.00,,,0.00,Wunderground v.1.15,2013-07-08 12:15:00,
2013-07-08 08:16:00,83.3,74.1,30.08,ESE,105,4.0,6.0,74,0.00,,,0.00,Wunderground v.1.15,2013-07-08 12:16:00,
2013-07-08 08:17:00,83.3,74.1,30.08,ESE,113,4.0,6.0,74,0.00,,,0.00,Wunderground v.1.15,2013-07-08 12:17:00,
2013-07-08 08:22:00,83.3,73.7,30.08,ENE,65,4.0,5.0,73,0.00,,,0.00,Wunderground v.1.15,2013-07-08 12:22:00,
2013-07-08 08:23:00,83.2,73.6,30.08,ENE,75,4.0,5.0,73,0.00,,,0.00,Wunderground v.1.15,2013-07-08 12:23:00,
2013-07-08 08:24:00,83.2,73.6,30.08,ENE,65,4.0,5.0,73,0.00,,,0.00,Wunderground v.1.15,2013-07-08 12:24:00,
2013-07-08 08:25:00,83.2,73.6,30.08,ESE,121,4.0,5.0,73,0.00,,,0.00,Wunderground v.1.15,2013-07-08 12:25:00,
2013-07-08 08:28:00,83.2,74.0,30.08,East,87,4.0,5.0,74,0.00,,,0.00,Wunderground v.1.15,2013-07-08 12:28:00,
2013-07-08 08:31:00,83.5,73.9,30.08,SE,129,4.0,4.0,73,0.00,,,0.00,Wunderground v.1.15,2013-07-08 12:31:00,
2013-07-08 08:33:00,83.6,74.0,30.08,ESE,110,4.0,4.0,73,0.00,,,0.00,Wunderground v.1.15,2013-07-08 12:33:00,
2013-07-08 08:34:00,83.6,74.0,30.08,ESE,106,4.0,5.0,73,0.00,,,0.00,Wunderground v.1.15,2013-07-08 12:34:00,
2013-07-08 08:35:00,83.7,74.1,30.08,SE,144,4.0,7.0,73,0.00,,,0.00,Wunderground v.1.15,2013-07-08 12:35:00,
2013-07-08 08:39:00,83.8,74.2,30.08,SSE,152,4.0,7.0,73,0.00,,,0.00,Wunderground v.1.15,2013-07-08 12:39:00,
2013-07-08 08:40:00,83.9,74.3,30.08,SE,124,4.0,4.0,73,0.00,,,0.00,Wunderground v.1.15,2013-07-08 12:40:00,
2013-07-08 08:41:00,84.0,74.4,30.08,East,83,4.0,4.0,73,0.00,,,0.00,Wunderground v.1.15,2013-07-08 12:41:00,
2013-07-08 08:45:00,84.4,74.4,30.08,NE,46,4.0,4.0,72,0.00,,,0.00,Wunderground v.1.15,2013-07-08 12:45:00,
2013-07-08 08:47:00,84.5,74.5,30.08,East,91,4.0,4.0,72,0.00,,,0.00,Wunderground v.1.15,2013-07-08 12:47:00,
2013-07-08 08:49:00,84.6,74.6,30.09,SW,236,4.0,5.0,72,0.00,,,0.00,Wunderground v.1.15,2013-07-08 12:49:00,
2013-07-08 08:52:00,84.7,74.7,30.08,ESE,109,4.0,7.0,72,0.00,,,0.00,Wunderground v.1.15,2013-07-08 12:52:00,
2013-07-08 08:54:00,84.8,74.3,30.09,East,79,4.0,7.0,71,0.00,,,0.00,Wunderground v.1.15,2013-07-08 12:54:00,
2013-07-08 08:55:00,84.8,74.3,30.08,ENE,75,4.0,7.0,71,0.00,,,0.00,Wunderground v.1.15,2013-07-08 12:55:00,
2013-07-08 08:58:00,84.7,74.7,30.09,ESE,103,4.0,7.0,72,0.00,,,0.00,Wunderground v.1.15,2013-07-08 12:58:00,
2013-07-08 09:00:00,84.6,74.2,30.09,ENE,76,4.0,4.0,71,0.00,,,0.00,Wunderground v.1.15,2013-07-08 13:00:00,
2013-07-08 09:01:00,84.6,74.2,30.09,SE,124,4.0,4.0,71,0.00,,,0.00,Wunderground v.1.15,2013-07-08 13:01:00,
2013-07-08 09:02:00,84.5,74.1,30.09,ESE,120,4.0,4.0,71,0.00,,,0.00,Wunderground v.1.15,2013-07-08 13:02:00,
2013-07-08 09:05:00,84.3,73.4,30.09,SE,133,4.0,6.0,70,0.00,,,0.00,Wunderground v.1.15,2013-07-08 13:05:00,
2013-07-08 09:08:00,84.2,73.8,30.09,East,97,4.0,6.0,71,0.00,,,0.00,Wunderground v.1.15,2013-07-08 13:08:00,
2013-07-08 09:11:00,84.1,73.7,30.09,ESE,120,4.0,5.0,71,0.00,,,0.00,Wunderground v.1.15,2013-07-08 13:11:00,
2013-07-08 09:14:00,83.9,73.5,30.09,SE,143,4.0,5.0,71,0.00,,,0.00,Wunderground v.1.15,2013-07-08 13:14:00,
2013-07-08 09:15:00,83.9,73.9,30.09,SSE,159,4.0,6.0,72,0.00,,,0.00,Wunderground v.1.15,2013-07-08 13:15:00,
2013-07-08 09:17:00,83.8,73.4,30.09,East,85,4.0,6.0,71,0.00,,,0.00,Wunderground v.1.15,2013-07-08 13:17:00,
2013-07-08 09:18:00,83.7,73.7,30.09,SE,124,4.0,6.0,72,0.00,,,0.00,Wunderground v.1.15,2013-07-08 13:18:00,
2013-07-08 09:20:00,83.8,73.8,30.09,ENE,67,5.0,5.0,72,0.00,,,0.00,Wunderground v.1.15,2013-07-08 13:20:00,
2013-07-08 09:22:00,84.2,73.3,30.09,ENE,57,4.0,5.0,70,0.00,,,0.00,Wunderground v.1.15,2013-07-08 13:22:00,
2013-07-08 09:25:00,84.7,73.0,30.09,ESE,113,4.0,5.0,68,0.00,,,0.00,Wunderground v.1.15,2013-07-08 13:25:00,
2013-07-08 09:27:00,84.8,73.5,30.09,ENE,72,4.0,5.0,69,0.00,,,0.00,Wunderground v.1.15,2013-07-08 13:27:00,
2013-07-08 09:29:00,85.1,73.3,30.09,ENE,66,4.0,5.0,68,0.00,,,0.00,Wunderground v.1.15,2013-07-08 13:29:00,
2013-07-08 09:32:00,85.5,73.3,30.09,East,82,4.0,8.0,67,0.00,,,0.00,Wunderground v.1.15,2013-07-08 13:32:00,
2013-07-08 09:33:00,85.5,72.8,30.10,East,82,4.0,11.0,66,0.00,,,0.00,Wunderground v.1.15,2013-07-08 13:33:00,
2013-07-08 09:35:00,85.5,72.4,30.09,SE,131,4.0,11.0,65,0.00,,,0.00,Wunderground v.1.15,2013-07-08 13:35:00,
2013-07-08 09:36:00,85.5,73.3,30.09,ENE,59,4.0,11.0,67,0.00,,,0.00,Wunderground v.1.15,2013-07-08 13:36:00,
2013-07-08 09:37:00,85.5,73.3,30.10,East,99,4.0,11.0,67,0.00,,,0.00,Wunderground v.1.15,2013-07-08 13:37:00,
2013-07-08 09:38:00,85.6,73.8,30.10,SSE,155,4.0,11.0,68,0.00,,,0.00,Wunderground v.1.15,2013-07-08 13:38:00,
2013-07-08 09:42:00,86.1,73.4,30.10,East,88,4.0,11.0,66,0.00,,,0.00,Wunderground v.1.15,2013-07-08 13:42:00,
2013-07-08 09:43:00,86.1,73.0,30.10,SE,141,4.0,11.0,65,0.00,,,0.00,Wunderground v.1.15,2013-07-08 13:43:00,
2013-07-08 09:45:00,86.0,73.3,30.10,ESE,123,4.0,11.0,66,0.00,,,0.00,Wunderground v.1.15,2013-07-08 13:45:00,
2013-07-08 09:49:00,86.1,73.9,30.10,East,79,3.0,11.0,67,0.00,,,0.00,Wunderground v.1.15,2013-07-08 13:49:00,
2013-07-08 09:50:00,86.2,74.0,30.10,East,84,4.0,11.0,67,0.00,,,0.00,Wunderground v.1.15,2013-07-08 13:50:00,
2013-07-08 09:51:00,86.3,73.6,30.10,SE,124,4.0,11.0,66,0.00,,,0.00,Wunderground v.1.15,2013-07-08 13:51:00,
2013-07-08 09:52:00,86.2,73.5,30.10,ENE,74,4.0,11.0,66,0.00,,,0.00,Wunderground v.1.15,2013-07-08 13:52:00,
2013-07-08 09:54:00,86.2,74.0,30.10,East,86,4.0,11.0,67,0.00,,,0.00,Wunderground v.1.15,2013-07-08 13:54:00,
2013-07-08 09:55:00,86.3,74.0,30.10,East,89,4.0,11.0,67,0.00,,,0.00,Wunderground v.1.15,2013-07-08 13:55:00,
2013-07-08 09:58:00,86.4,74.1,30.11,NE,55,3.0,11.0,67,0.00,,,0.00,Wunderground v.1.15,2013-07-08 13:58:00,
2013-07-08 10:01:00,86.9,74.2,30.11,SE,127,3.0,3.0,66,0.00,,,0.00,Wunderground v.1.15,2013-07-08 14:01:00,
2013-07-08 10:04:00,87.4,74.2,30.11,ESE,104,3.0,7.0,65,0.00,,,0.00,Wunderground v.1.15,2013-07-08 14:04:00,
2013-07-08 10:05:00,87.4,74.2,30.11,SE,129,3.0,7.0,65,0.00,,,0.00,Wunderground v.1.15,2013-07-08 14:05:00,
2013-07-08 10:06:00,87.4,74.2,30.11,East,101,3.0,7.0,65,0.00,,,0.00,Wunderground v.1.15,2013-07-08 14:06:00,
2013-07-08 10:09:00,87.3,73.6,30.11,East,81,3.0,7.0,64,0.00,,,0.00,Wunderground v.1.15,2013-07-08 14:09:00,
2013-07-08 10:10:00,87.3,73.6,30.11,East,98,3.0,6.0,64,0.00,,,0.00,Wunderground v.1.15,2013-07-08 14:10:00,
2013-07-08 10:12:00,87.1,73.4,30.11,East,83,4.0,6.0,64,0.00,,,0.00,Wunderground v.1.15,2013-07-08 14:12:00,
2013-07-08 10:14:00,87.1,73.4,30.11,ESE,119,4.0,6.0,64,0.00,,,0.00,Wunderground v.1.15,2013-07-08 14:14:00,
2013-07-08 10:17:00,87.3,72.7,30.11,ESE,120,4.0,6.0,62,0.00,,,0.00,Wunderground v.1.15,2013-07-08 14:17:00,
2013-07-08 10:20:00,87.5,73.3,30.11,SE,129,4.0,4.0,63,0.00,,,0.00,Wunderground v.1.15,2013-07-08 14:20:00,
2013-07-08 10:22:00,87.5,72.4,30.11,East,83,4.0,6.0,61,0.00,,,0.00,Wunderground v.1.15,2013-07-08 14:22:00,
2013-07-08 10:23:00,87.4,72.3,30.11,SE,135,4.0,6.0,61,0.00,,,0.00,Wunderground v.1.15,2013-07-08 14:23:00,
2013-07-08 10:25:00,87.4,72.8,30.11,East,88,4.0,6.0,62,0.00,,,0.00,Wunderground v.1.15,2013-07-08 14:25:00,
2013-07-08 10:27:00,87.5,73.3,30.11,South,179,3.0,6.0,63,0.00,,,0.00,Wunderground v.1.15,2013-07-08 14:27:00,
2013-07-08 10:28:00,87.5,73.3,30.11,East,84,4.0,6.0,63,0.00,,,0.00,Wunderground v.1.15,2013-07-08 14:28:00,
2013-07-08 10:29:00,87.3,73.6,30.11,SE,131,4.0,6.0,64,0.00,,,0.00,Wunderground v.1.15,2013-07-08 14:29:00,
2013-07-08 10:30:00,87.1,73.4,30.11,SE,142,4.0,5.0,64,0.00,,,0.00,Wunderground v.1.15,2013-07-08 14:30:00,
2013-07-08 10:32:00,86.6,73.0,30.11,East,98,4.0,10.0,64,0.00,,,0.00,Wunderground v.1.15,2013-07-08 14:32:00,
2013-07-08 10:37:00,86.6,73.4,30.11,NE,53,4.0,10.0,65,0.00,,,0.00,Wunderground v.1.15,2013-07-08 14:37:00,
2013-07-08 10:39:00,87.0,73.8,30.11,SE,127,4.0,10.0,65,0.00,,,0.00,Wunderground v.1.15,2013-07-08 14:39:00,
2013-07-08 10:40:00,87.1,73.9,30.11,South,178,3.0,10.0,65,0.00,,,0.00,Wunderground v.1.15,2013-07-08 14:40:00,
2013-07-08 10:42:00,87.3,73.6,30.11,SE,124,3.0,10.0,64,0.00,,,0.00,Wunderground v.1.15,2013-07-08 14:42:00,
2013-07-08 10:45:00,87.4,72.3,30.11,East,79,4.0,10.0,61,0.00,,,0.00,Wunderground v.1.15,2013-07-08 14:45:00,
2013-07-08 10:47:00,87.3,72.2,30.12,ENE,77,4.0,10.0,61,0.00,,,0.00,Wunderground v.1.15,2013-07-08 14:47:00,
2013-07-08 10:49:00,87.5,73.3,30.12,East,101,4.0,10.0,63,0.00,,,0.00,Wunderground v.1.15,2013-07-08 14:49:00,
2013-07-08 10:52:00,88.1,72.0,30.12,East,96,4.0,10.0,59,0.00,,,0.00,Wunderground v.1.15,2013-07-08 14:52:00,
2013-07-08 10:53:00,88.1,71.5,30.12,ESE,112,4.0,10.0,58,0.00,,,0.00,Wunderground v.1.15,2013-07-08 14:53:00,
2013-07-08 10:55:00,88.0,71.9,30.12,SE,141,4.0,10.0,59,0.00,,,0.00,Wunderground v.1.15,2013-07-08 14:55:00,
2013-07-08 10:58:00,87.7,72.6,30.12,SSE,154,4.0,10.0,61,0.00,,,0.00,Wunderground v.1.15,2013-07-08 14:58:00,
2013-07-08 10:59:00,87.7,73.1,30.12,ENE,72,4.0,10.0,62,0.00,,,0.00,Wunderground v.1.15,2013-07-08 14:59:00,
2013-07-08 11:02:00,87.6,73.0,30.12,ENE,72,4.0,5.0,62,0.00,,,0.00,Wunderground v.1.15,2013-07-08 15:02:00,
2013-07-08 11:04:00,87.7,73.1,30.12,ENE,64,4.0,6.0,62,0.00,,,0.00,Wunderground v.1.15,2013-07-08 15:04:00,
2013-07-08 11:05:00,87.8,72.7,30.12,East,101,4.0,6.0,61,0.00,,,0.00,Wunderground v.1.15,2013-07-08 15:05:00,
2013-07-08 11:07:00,87.9,73.3,30.12,SE,135,4.0,6.0,62,0.00,,,0.00,Wunderground v.1.15,2013-07-08 15:07:00,
2013-07-08 11:08:00,88.0,72.9,30.12,ENE,64,4.0,7.0,61,0.00,,,0.00,Wunderground v.1.15,2013-07-08 15:08:00,
2013-07-08 11:10:00,88.2,71.6,30.12,ENE,64,4.0,4.0,58,0.00,,,0.00,Wunderground v.1.15,2013-07-08 15:10:00,
2013-07-08 11:11:00,88.2,72.1,30.12,WSW,252,4.0,4.0,59,0.00,,,0.00,Wunderground v.1.15,2013-07-08 15:11:00,
2013-07-08 11:13:00,87.9,72.8,30.12,ENE,75,4.0,5.0,61,0.00,,,0.00,Wunderground v.1.15,2013-07-08 15:13:00,
2013-07-08 11:17:00,87.8,73.2,30.12,East,79,4.0,8.0,62,0.00,,,0.00,Wunderground v.1.15,2013-07-08 15:17:00,
2013-07-08 11:18:00,87.8,73.2,30.12,East,95,4.0,8.0,62,0.00,,,0.00,Wunderground v.1.15,2013-07-08 15:18:00,
2013-07-08 11:21:00,87.9,72.3,30.12,SE,131,4.0,4.0,60,0.00,,,0.00,Wunderground v.1.15,2013-07-08 15:21:00,
2013-07-08 11:22:00,87.9,72.8,30.12,NE,44,4.0,7.0,61,0.00,,,0.00,Wunderground v.1.15,2013-07-08 15:22:00,
2013-07-08 11:23:00,87.8,72.7,30.12,SE,140,4.0,7.0,61,0.00,,,0.00,Wunderground v.1.15,2013-07-08 15:23:00,
2013-07-08 11:25:00,87.5,72.9,30.12,SE,135,4.0,7.0,62,0.00,,,0.00,Wunderground v.1.15,2013-07-08 15:25:00,
2013-07-08 11:27:00,87.3,73.2,30.12,SE,125,5.0,7.0,63,0.00,,,0.00,Wunderground v.1.15,2013-07-08 15:27:00,
2013-07-08 11:28:00,87.3,73.2,30.12,SSE,150,5.0,7.0,63,0.00,,,0.00,Wunderground v.1.15,2013-07-08 15:28:00,
2013-07-08 11:29:00,87.5,73.3,30.12,ESE,120,5.0,7.0,63,0.00,,,0.00,Wunderground v.1.15,2013-07-08 15:29:00,
2013-07-08 11:30:00,87.6,73.4,30.12,SE,133,4.0,4.0,63,0.00,,,0.00,Wunderground v.1.15,2013-07-08 15:30:00,
2013-07-08 11:31:00,87.9,74.2,30.12,SE,125,4.0,10.0,64,0.00,,,0.00,Wunderground v.1.15,2013-07-08 15:31:00,
2013-07-08 11:36:00,89.3,74.1,30.13,ENE,77,3.0,10.0,61,0.00,,,0.00,Wunderground v.1.15,2013-07-08 15:36:00,
2013-07-08 11:37:00,89.3,73.6,30.12,East,101,3.0,10.0,60,0.00,,,0.00,Wunderground v.1.15,2013-07-08 15:37:00,
2013-07-08 11:38:00,89.2,73.0,30.13,ENE,75,3.0,10.0,59,0.00,,,0.00,Wunderground v.1.15,2013-07-08 15:38:00,
2013-07-08 11:41:00,88.8,73.1,30.12,SSE,147,4.0,10.0,60,0.00,,,0.00,Wunderground v.1.15,2013-07-08 15:41:00,
2013-07-08 11:42:00,88.7,73.5,30.12,SE,134,4.0,10.0,61,0.00,,,0.00,Wunderground v.1.15,2013-07-08 15:42:00,
2013-07-08 11:44:00,88.4,73.2,30.12,SE,126,5.0,10.0,61,0.00,,,0.00,Wunderground v.1.15,2013-07-08 15:44:00,
2013-07-08 11:45:00,88.4,73.2,30.12,ENE,77,5.0,10.0,61,0.00,,,0.00,Wunderground v.1.15,2013-07-08 15:45:00,
2013-07-08 11:48:00,88.2,73.5,30.13,ENE,69,5.0,10.0,62,0.00,,,0.00,Wunderground v.1.15,2013-07-08 15:48:00,
2013-07-08 11:50:00,88.3,73.6,30.13,SE,132,5.0,5.0,62,0.00,,,0.00,Wunderground v.1.15,2013-07-08 15:50:00,
2013-07-08 11:51:00,88.2,73.0,30.13,ESE,113,5.0,10.0,61,0.00,,,0.00,Wunderground v.1.15,2013-07-08 15:51:00,
2013-07-08 11:53:00,88.2,74.0,30.13,ENE,77,4.0,10.0,63,0.00,,,0.00,Wunderground v.1.15,2013-07-08 15:53:00,
2013-07-08 11:55:00,88.3,74.1,30.12,ENE,77,4.0,10.0,63,0.00,,,0.00,Wunderground v.1.15,2013-07-08 15:55:00,
2013-07-08 11:58:00,88.4,73.7,30.12,East,89,4.0,10.0,62,0.00,,,0.00,Wunderground v.1.15,2013-07-08 15:58:00,
2013-07-08 11:59:00,88.4,73.7,30.12,East,86,4.0,10.0,62,0.00,,,0.00,Wunderground v.1.15,2013-07-08 15:59:00,
2013-07-08 12:00:00,88.4,74.2,30.12,ENE,65,4.0,5.0,63,0.00,,,0.00,Wunderground v.1.15,2013-07-08 16:00:00,
2013-07-08 12:03:00,88.3,73.1,30.12,ESE,103,4.0,5.0,61,0.00,,,0.00,Wunderground v.1.15,2013-07-08 16:03:00,
2013-07-08 12:04:00,88.5,73.8,30.13,NNE,31,4.0,5.0,62,0.00,,,0.00,Wunderground v.1.15,2013-07-08 16:04:00,
2013-07-08 12:06:00,88.8,73.1,30.12,East,79,4.0,5.0,60,0.00,,,0.00,Wunderground v.1.15,2013-07-08 16:06:00,
2013-07-08 12:07:00,88.8,72.6,30.12,East,79,4.0,8.0,59,0.00,,,0.00,Wunderground v.1.15,2013-07-08 16:07:00,
2013-07-08 12:10:00,88.9,73.7,30.12,East,94,5.0,6.0,61,0.00,,,0.00,Wunderground v.1.15,2013-07-08 16:10:00,
2013-07-08 12:12:00,88.9,73.7,30.12,East,84,5.0,6.0,61,0.00,,,0.00,Wunderground v.1.15,2013-07-08 16:12:00,
2013-07-08 12:15:00,88.9,73.7,30.12,ENE,70,5.0,6.0,61,0.00,,,0.00,Wunderground v.1.15,2013-07-08 16:15:00,
2013-07-08 12:17:00,88.5,73.3,30.12,SSE,147,5.0,6.0,61,0.00,,,0.00,Wunderground v.1.15,2013-07-08 16:17:00,
2013-07-08 12:20:00,88.3,73.1,30.12,SSE,168,4.0,5.0,61,0.00,,,0.00,Wunderground v.1.15,2013-07-08 16:20:00,
2013-07-08 12:21:00,88.3,72.7,30.12,ESE,115,4.0,5.0,60,0.00,,,0.00,Wunderground v.1.15,2013-07-08 16:21:00,
2013-07-08 12:23:00,88.5,73.8,30.12,SE,145,4.0,11.0,62,0.00,,,0.00,Wunderground v.1.15,2013-07-08 16:23:00,
2013-07-08 12:24:00,88.5,73.3,30.12,ESE,104,5.0,11.0,61,0.00,,,0.00,Wunderground v.1.15,2013-07-08 16:24:00,
2013-07-08 12:26:00,88.8,72.6,30.12,NE,55,4.0,11.0,59,0.00,,,0.00,Wunderground v.1.15,2013-07-08 16:26:00,
2013-07-08 12:28:00,89.2,72.5,30.12,SE,134,4.0,11.0,58,0.00,,,0.00,Wunderground v.1.15,2013-07-08 16:28:00,
2013-07-08 12:30:00,89.5,73.3,30.12,ESE,118,5.0,5.0,59,0.00,,,0.00,Wunderground v.1.15,2013-07-08 16:30:00,
2013-07-08 12:31:00,89.4,73.2,30.12,East,96,4.0,9.0,59,0.00,,,0.00,Wunderground v.1.15,2013-07-08 16:31:00,
2013-07-08 12:32:00,89.4,73.2,30.12,SE,127,4.0,9.0,59,0.00,,,0.00,Wunderground v.1.15,2013-07-08 16:32:00,
2013-07-08 12:34:00,89.4,72.7,30.12,SE,131,4.0,16.0,58,0.00,,,0.00,Wunderground v.1.15,2013-07-08 16:34:00,
2013-07-08 12:36:00,89.4,72.7,30.12,NE,45,5.0,16.0,58,0.00,,,0.00,Wunderground v.1.15,2013-07-08 16:36:00,
2013-07-08 12:38:00,89.5,72.8,30.12,ENE,72,5.0,16.0,58,0.00,,,0.00,Wunderground v.1.15,2013-07-08 16:38:00,
2013-07-08 12:40:00,89.3,73.6,30.12,NE,51,5.0,5.0,60,0.00,,,0.00,Wunderground v.1.15,2013-07-08 16:40:00,
2013-07-08 12:41:00,89.4,73.7,30.12,SE,131,5.0,9.0,60,0.00,,,0.00,Wunderground v.1.15,2013-07-08 16:41:00,
2013-07-08 12:44:00,89.9,73.1,30.12,East,84,5.0,9.0,58,0.00,,,0.00,Wunderground v.1.15,2013-07-08 16:44:00,
2013-07-08 12:46:00,90.0,73.2,30.12,SE,142,4.0,9.0,58,0.00,,,0.00,Wunderground v.1.15,2013-07-08 16:46:00,
2013-07-08 12:49:00,89.6,73.4,30.12,ENE,72,4.0,9.0,59,0.00,,,0.00,Wunderground v.1.15,2013-07-08 16:49:00,
2013-07-08 12:50:00,89.6,73.4,30.12,SE,126,4.0,9.0,59,0.00,,,0.00,Wunderground v.1.15,2013-07-08 16:50:00,
2013-07-08 12:54:00,90.2,73.4,30.12,ENE,65,4.0,9.0,58,0.00,,,0.00,Wunderground v.1.15,2013-07-08 16:54:00,
2013-07-08 12:55:00,90.4,73.1,30.12,East,101,4.0,9.0,57,0.00,,,0.00,Wunderground v.1.15,2013-07-08 16:55:00,
2013-07-08 12:57:00,90.5,73.7,30.12,ENE,65,4.0,9.0,58,0.00,,,0.00,Wunderground v.1.15,2013-07-08 16:57:00,
2013-07-08 13:01:00,90.0,72.2,30.12,ENE,67,5.0,11.0,56,0.00,,,0.00,Wunderground v.1.15,2013-07-08 17:01:00,
2013-07-08 13:02:00,89.8,72.5,30.12,ENE,77,5.0,11.0,57,0.00,,,0.00,Wunderground v.1.15,2013-07-08 17:02:00,
2013-07-08 13:08:00,89.6,72.9,30.12,ENE,60,5.0,11.0,58,0.00,,,0.00,Wunderground v.1.15,2013-07-08 17:08:00,
2013-07-08 13:09:00,89.3,72.6,30.12,SE,125,5.0,11.0,58,0.00,,,0.00,Wunderground v.1.15,2013-07-08 17:09:00,
2013-07-08 13:14:00,88.7,73.5,30.12,ESE,120,6.0,6.0,61,0.00,,,0.00,Wunderground v.1.15,2013-07-08 17:14:00,
2013-07-08 13:15:00,88.7,74.0,30.12,SE,129,6.0,6.0,62,0.00,,,0.00,Wunderground v.1.15,2013-07-08 17:15:00,
2013-07-08 13:16:00,88.8,74.1,30.12,ENE,57,6.0,6.0,62,0.00,,,0.00,Wunderground v.1.15,2013-07-08 17:16:00,
2013-07-08 13:17:00,88.9,74.2,30.12,SE,124,6.0,9.0,62,0.00,,,0.00,Wunderground v.1.15,2013-07-08 17:17:00,
2013-07-08 13:20:00,88.8,74.1,30.11,SE,143,5.0,6.0,62,0.00,,,0.00,Wunderground v.1.15,2013-07-08 17:20:00,
2013-07-08 13:21:00,88.9,73.7,30.12,ENE,64,5.0,6.0,61,0.00,,,0.00,Wunderground v.1.15,2013-07-08 17:21:00,
2013-07-08 13:25:00,88.9,73.7,30.11,NE,42,5.0,8.0,61,0.00,,,0.00,Wunderground v.1.15,2013-07-08 17:25:00,
2013-07-08 13:27:00,89.2,73.0,30.12,SE,129,5.0,8.0,59,0.00,,,0.00,Wunderground v.1.15,2013-07-08 17:27:00,
2013-07-08 13:28:00,89.3,73.1,30.12,East,82,5.0,8.0,59,0.00,,,0.00,Wunderground v.1.15,2013-07-08 17:28:00,
2013-07-08 13:31:00,89.5,73.3,30.11,SSE,147,5.0,16.0,59,0.00,,,0.00,Wunderground v.1.15,2013-07-08 17:31:00,
2013-07-08 13:34:00,89.6,73.9,30.11,SSE,148,6.0,16.0,60,0.00,,,0.00,Wunderground v.1.15,2013-07-08 17:34:00,
2013-07-08 13:36:00,89.8,73.6,30.11,NE,56,6.0,16.0,59,0.00,,,0.00,Wunderground v.1.15,2013-07-08 17:36:00,
2013-07-08 13:38:00,89.7,73.0,30.11,SSE,154,6.0,16.0,58,0.00,,,0.00,Wunderground v.1.15,2013-07-08 17:38:00,
2013-07-08 13:40:00,89.5,72.8,30.12,ESE,115,5.0,5.0,58,0.00,,,0.00,Wunderground v.1.15,2013-07-08 17:40:00,
2013-07-08 13:41:00,89.5,72.8,30.12,ENE,67,5.0,16.0,58,0.00,,,0.00,Wunderground v.1.15,2013-07-08 17:41:00,
2013-07-08 13:44:00,89.9,73.7,30.12,ENE,65,4.0,16.0,59,0.00,,,0.00,Wunderground v.1.15,2013-07-08 17:44:00,
2013-07-08 13:46:00,90.5,73.7,30.11,East,91,4.0,16.0,58,0.00,,,0.00,Wunderground v.1.15,2013-07-08 17:46:00,
2013-07-08 13:47:00,90.6,73.8,30.12,ENE,58,4.0,16.0,58,0.00,,,0.00,Wunderground v.1.15,2013-07-08 17:47:00,
2013-07-08 13:50:00,90.3,73.0,30.11,SSE,158,4.0,4.0,57,0.00,,,0.00,Wunderground v.1.15,2013-07-08 17:50:00,
2013-07-08 13:53:00,90.3,72.5,30.11,ESE,123,4.0,16.0,56,0.00,,,0.00,Wunderground v.1.15,2013-07-08 17:53:00,
2013-07-08 13:55:00,90.3,73.0,30.11,ESE,113,4.0,16.0,57,0.00,,,0.00,Wunderground v.1.15,2013-07-08 17:55:00,
2013-07-08 13:57:00,90.3,72.5,30.11,SE,139,5.0,16.0,56,0.00,,,0.00,Wunderground v.1.15,2013-07-08 17:57:00,
2013-07-08 13:59:00,90.5,73.2,30.11,SE,129,4.0,16.0,57,0.00,,,0.00,Wunderground v.1.15,2013-07-08 17:59:00,
2013-07-08 14:00:00,90.7,73.4,30.11,SSE,154,4.0,4.0,57,0.00,,,0.00,Wunderground v.1.15,2013-07-08 18:00:00,
2013-07-08 14:04:00,90.7,72.8,30.11,ESE,117,4.0,6.0,56,0.00,,,0.00,Wunderground v.1.15,2013-07-08 18:04:00,
2013-07-08 14:07:00,91.0,73.7,30.11,ESE,105,4.0,6.0,57,0.00,,,0.00,Wunderground v.1.15,2013-07-08 18:07:00,
2013-07-08 14:11:00,90.1,72.3,30.11,NE,53,4.0,7.0,56,0.00,,,0.00,Wunderground v.1.15,2013-07-08 18:11:00,
2013-07-08 14:12:00,90.0,72.7,30.11,NNE,26,4.0,7.0,57,0.00,,,0.00,Wunderground v.1.15,2013-07-08 18:12:00,
2013-07-08 14:15:00,90.1,73.8,30.11,SE,137,4.0,7.0,59,0.00,,,0.00,Wunderground v.1.15,2013-07-08 18:15:00,
2013-07-08 14:17:00,90.1,73.3,30.10,SE,134,5.0,7.0,58,0.00,,,0.00,Wunderground v.1.15,2013-07-08 18:17:00,
2013-07-08 14:21:00,90.2,73.9,30.10,East,94,4.0,7.0,59,0.00,,,0.00,Wunderground v.1.15,2013-07-08 18:21:00,
2013-07-08 14:22:00,90.2,72.9,30.11,ENE,71,5.0,7.0,57,0.00,,,0.00,Wunderground v.1.15,2013-07-08 18:22:00,
2013-07-08 14:26:00,90.0,73.7,30.10,ESE,105,5.0,7.0,59,0.00,,,0.00,Wunderground v.1.15,2013-07-08 18:26:00,
2013-07-08 14:33:00,90.2,73.9,30.10,East,86,5.0,16.0,59,0.00,,,0.00,Wunderground v.1.15,2013-07-08 18:33:00,
2013-07-08 14:34:00,90.3,74.0,30.10,East,88,4.0,16.0,59,0.00,,,0.00,Wunderground v.1.15,2013-07-08 18:34:00,
2013-07-08 14:38:00,90.0,73.7,30.10,East,85,5.0,16.0,59,0.00,,,0.00,Wunderground v.1.15,2013-07-08 18:38:00,
2013-07-08 14:39:00,90.2,73.9,30.10,East,84,5.0,16.0,59,0.00,,,0.00,Wunderground v.1.15,2013-07-08 18:39:00,
2013-07-08 14:40:00,90.3,74.0,30.10,ESE,113,5.0,16.0,59,0.00,,,0.00,Wunderground v.1.15,2013-07-08 18:40:00,
2013-07-08 14:46:00,90.1,73.8,30.10,East,97,5.0,16.0,59,0.00,,,0.00,Wunderground v.1.15,2013-07-08 18:46:00,
2013-07-08 14:47:00,90.2,73.9,30.10,NE,51,5.0,16.0,59,0.00,,,0.00,Wunderground v.1.15,2013-07-08 18:47:00,
2013-07-08 14:52:00,90.1,74.3,30.10,SE,136,5.0,16.0,60,0.00,,,0.00,Wunderground v.1.15,2013-07-08 18:52:00,
2013-07-08 14:54:00,90.2,74.4,30.10,ESE,108,4.0,16.0,60,0.00,,,0.00,Wunderground v.1.15,2013-07-08 18:54:00,
2013-07-08 14:56:00,90.0,73.7,30.10,NE,48,4.0,16.0,59,0.00,,,0.00,Wunderground v.1.15,2013-07-08 18:56:00,
2013-07-08 15:00:00,89.8,73.0,30.10,ENE,76,5.0,8.0,58,0.00,,,0.00,Wunderground v.1.15,2013-07-08 19:00:00,
2013-07-08 15:01:00,89.7,73.0,30.10,ENE,78,5.0,8.0,58,0.00,,,0.00,Wunderground v.1.15,2013-07-08 19:01:00,
2013-07-08 15:06:00,89.4,73.7,30.10,East,82,6.0,10.0,60,0.00,,,0.00,Wunderground v.1.15,2013-07-08 19:06:00,
2013-07-08 15:07:00,89.3,73.1,30.10,ESE,117,6.0,10.0,59,0.00,,,0.00,Wunderground v.1.15,2013-07-08 19:07:00,
2013-07-08 15:08:00,89.3,72.6,30.10,ENE,61,6.0,10.0,58,0.00,,,0.00,Wunderground v.1.15,2013-07-08 19:08:00,
2013-07-08 15:13:00,90.0,72.7,30.09,ENE,66,5.0,6.0,57,0.00,,,0.00,Wunderground v.1.15,2013-07-08 19:13:00,
2013-07-08 15:14:00,90.0,72.2,30.09,SE,133,5.0,6.0,56,0.00,,,0.00,Wunderground v.1.15,2013-07-08 19:14:00,
2013-07-08 15:19:00,90.1,72.8,30.09,ENE,62,5.0,7.0,57,0.00,,,0.00,Wunderground v.1.15,2013-07-08 19:19:00,
2013-07-08 15:20:00,90.0,72.7,30.09,NNE,16,5.0,5.0,57,0.00,,,0.00,Wunderground v.1.15,2013-07-08 19:20:00,
2013-07-08 15:23:00,90.0,73.7,30.09,ENE,62,5.0,8.0,59,0.00,,,0.00,Wunderground v.1.15,2013-07-08 19:23:00,
2013-07-08 15:26:00,89.9,74.2,30.09,NNE,32,4.0,8.0,60,0.00,,,0.00,Wunderground v.1.15,2013-07-08 19:26:00,
2013-07-08 15:30:00,90.2,73.9,30.09,ESE,110,4.0,4.0,59,0.00,,,0.00,Wunderground v.1.15,2013-07-08 19:30:00,
2013-07-08 15:31:00,90.2,73.4,30.09,ENE,62,4.0,12.0,58,0.00,,,0.00,Wunderground v.1.15,2013-07-08 19:31:00,
2013-07-08 15:36:00,90.1,72.8,30.09,SSE,148,4.0,12.0,57,0.00,,,0.00,Wunderground v.1.15,2013-07-08 19:36:00,
2013-07-08 15:39:00,90.3,73.0,30.09,SE,124,4.0,12.0,57,0.00,,,0.00,Wunderground v.1.15,2013-07-08 19:39:00,
2013-07-08 15:42:00,90.3,72.5,30.09,SE,136,4.0,12.0,56,0.00,,,0.00,Wunderground v.1.15,2013-07-08 19:42:00,
2013-07-08 15:43:00,90.2,72.9,30.09,East,90,4.0,12.0,57,0.00,,,0.00,Wunderground v.1.15,2013-07-08 19:43:00,
2013-07-08 15:46:00,90.0,73.2,30.09,NE,54,5.0,12.0,58,0.00,,,0.00,Wunderground v.1.15,2013-07-08 19:46:00,
2013-07-08 15:49:00,90.1,73.3,30.08,ESE,114,4.0,12.0,58,0.00,,,0.00,Wunderground v.1.15,2013-07-08 19:49:00,
2013-07-08 15:51:00,90.3,72.5,30.08,SE,145,4.0,12.0,56,0.00,,,0.00,Wunderground v.1.15,2013-07-08 19:51:00,
2013-07-08 15:52:00,90.4,72.6,30.08,ENE,66,4.0,12.0,56,0.00,,,0.00,Wunderground v.1.15,2013-07-08 19:52:00,
2013-07-08 15:56:00,90.2,72.4,30.08,SE,128,4.0,12.0,56,0.00,,,0.00,Wunderground v.1.15,2013-07-08 19:56:00,
2013-07-08 15:57:00,90.2,72.4,30.08,ENE,58,4.0,12.0,56,0.00,,,0.00,Wunderground v.1.15,2013-07-08 19:57:00,
2013-07-08 16:01:00,89.8,72.0,30.08,East,81,5.0,5.0,56,0.00,,,0.00,Wunderground v.1.15,2013-07-08 20:01:00,
2013-07-08 16:04:00,89.7,73.0,30.08,SW,236,5.0,5.0,58,0.00,,,0.00,Wunderground v.1.15,2013-07-08 20:04:00,
2013-07-08 16:06:00,90.0,73.2,30.08,ESE,115,4.0,6.0,58,0.00,,,0.00,Wunderground v.1.15,2013-07-08 20:06:00,
2013-07-08 16:07:00,89.9,73.1,30.08,ENE,58,5.0,6.0,58,0.00,,,0.00,Wunderground v.1.15,2013-07-08 20:07:00,
2013-07-08 16:10:00,90.0,73.2,30.08,ENE,72,4.0,5.0,58,0.00,,,0.00,Wunderground v.1.15,2013-07-08 20:10:00,
2013-07-08 16:11:00,90.1,73.3,30.08,East,92,4.0,5.0,58,0.00,,,0.00,Wunderground v.1.15,2013-07-08 20:11:00,
2013-07-08 16:17:00,90.2,72.4,30.07,ENE,58,3.0,5.0,56,0.00,,,0.00,Wunderground v.1.15,2013-07-08 20:17:00,
2013-07-08 16:19:00,89.9,73.1,30.07,SSE,150,3.0,5.0,58,0.00,,,0.00,Wunderground v.1.15,2013-07-08 20:19:00,
2013-07-08 16:23:00,89.8,73.0,30.07,East,86,3.0,6.0,58,0.00,,,0.00,Wunderground v.1.15,2013-07-08 20:23:00,
2013-07-08 16:25:00,89.5,73.3,30.07,NNE,32,4.0,6.0,59,0.00,,,0.00,Wunderground v.1.15,2013-07-08 20:25:00,
2013-07-08 16:28:00,89.5,73.8,30.07,East,89,3.0,6.0,60,0.00,,,0.00,Wunderground v.1.15,2013-07-08 20:28:00,
2013-07-08 16:31:00,89.3,73.1,30.07,East,98,4.0,11.0,59,0.00,,,0.00,Wunderground v.1.15,2013-07-08 20:31:00,
2013-07-08 16:35:00,89.5,73.3,30.07,NE,34,3.0,11.0,59,0.00,,,0.00,Wunderground v.1.15,2013-07-08 20:35:00,
2013-07-08 16:37:00,89.7,73.0,30.07,East,80,3.0,11.0,58,0.00,,,0.00,Wunderground v.1.15,2013-07-08 20:37:00,
2013-07-08 16:42:00,89.3,73.6,30.07,ESE,115,3.0,11.0,60,0.00,,,0.00,Wunderground v.1.15,2013-07-08 20:42:00,
2013-07-08 16:43:00,89.3,73.6,30.07,SSE,158,3.0,11.0,60,0.00,,,0.00,Wunderground v.1.15,2013-07-08 20:43:00,
2013-07-08 16:48:00,89.6,73.4,30.07,SE,128,2.0,11.0,59,0.00,,,0.00,Wunderground v.1.15,2013-07-08 20:48:00,
2013-07-08 16:49:00,89.5,73.3,30.07,SSW,200,2.0,11.0,59,0.00,,,0.00,Wunderground v.1.15,2013-07-08 20:49:00,
2013-07-08 16:53:00,89.0,73.3,30.06,SSE,153,3.0,11.0,60,0.00,,,0.00,Wunderground v.1.15,2013-07-08 20:53:00,
2013-07-08 16:54:00,89.0,73.8,30.06,ENE,75,3.0,11.0,61,0.00,,,0.00,Wunderground v.1.15,2013-07-08 20:54:00,
2013-07-08 16:55:00,89.2,74.0,30.06,ENE,58,3.0,11.0,61,0.00,,,0.00,Wunderground v.1.15,2013-07-08 20:55:00,
2013-07-08 17:00:00,89.7,73.5,30.06,SSE,147,3.0,3.0,59,0.00,,,0.00,Wunderground v.1.15,2013-07-08 21:00:00,
2013-07-08 17:02:00,89.7,73.5,30.06,East,94,3.0,5.0,59,0.00,,,0.00,Wunderground v.1.15,2013-07-08 21:02:00,
2013-07-08 17:03:00,89.7,73.5,30.06,ENE,59,3.0,7.0,59,0.00,,,0.00,Wunderground v.1.15,2013-07-08 21:03:00,
2013-07-08 17:10:00,89.4,73.2,30.06,ESE,120,3.0,5.0,59,0.00,,,0.00,Wunderground v.1.15,2013-07-08 21:10:00,
2013-07-08 17:11:00,89.5,73.3,30.06,ESE,108,3.0,5.0,59,0.00,,,0.00,Wunderground v.1.15,2013-07-08 21:11:00,
2013-07-08 17:12:00,89.6,73.4,30.06,ESE,109,3.0,5.0,59,0.00,,,0.00,Wunderground v.1.15,2013-07-08 21:12:00,
2013-07-08 17:17:00,90.3,74.5,30.06,NW,311,3.0,5.0,60,0.00,,,0.00,Wunderground v.1.15,2013-07-08 21:17:00,
2013-07-08 17:20:00,89.9,73.1,30.06,East,82,3.0,4.0,58,0.00,,,0.00,Wunderground v.1.15,2013-07-08 21:20:00,
2013-07-08 17:22:00,89.6,73.4,30.06,East,86,3.0,4.0,59,0.00,,,0.00,Wunderground v.1.15,2013-07-08 21:22:00,
2013-07-08 17:25:00,89.2,73.5,30.06,ENE,69,4.0,13.0,60,0.00,,,0.00,Wunderground v.1.15,2013-07-08 21:25:00,
2013-07-08 17:28:00,89.0,73.3,30.06,East,85,5.0,13.0,60,0.00,,,0.00,Wunderground v.1.15,2013-07-08 21:28:00,
2013-07-08 17:29:00,88.9,73.2,30.06,East,79,5.0,13.0,60,0.00,,,0.00,Wunderground v.1.15,2013-07-08 21:29:00,
2013-07-08 17:36:00,88.8,73.6,30.06,West,281,5.0,9.0,61,0.00,,,0.00,Wunderground v.1.15,2013-07-08 21:36:00,
2013-07-08 17:37:00,88.8,73.6,30.06,ENE,75,4.0,9.0,61,0.00,,,0.00,Wunderground v.1.15,2013-07-08 21:37:00,
2013-07-08 17:39:00,88.6,73.4,30.06,ENE,65,4.0,9.0,61,0.00,,,0.00,Wunderground v.1.15,2013-07-08 21:39:00,
2013-07-08 17:42:00,88.6,73.9,30.06,SSE,148,4.0,9.0,62,0.00,,,0.00,Wunderground v.1.15,2013-07-08 21:42:00,
2013-07-08 17:45:00,88.5,73.8,30.06,ESE,104,3.0,9.0,62,0.00,,,0.00,Wunderground v.1.15,2013-07-08 21:45:00,
2013-07-08 17:48:00,88.4,74.2,30.06,ENE,77,4.0,9.0,63,0.00,,,0.00,Wunderground v.1.15,2013-07-08 21:48:00,
2013-07-08 17:50:00,88.4,74.2,30.06,ENE,75,4.0,9.0,63,0.00,,,0.00,Wunderground v.1.15,2013-07-08 21:50:00,
2013-07-08 17:51:00,88.6,74.4,30.06,East,98,4.0,9.0,63,0.00,,,0.00,Wunderground v.1.15,2013-07-08 21:51:00,
2013-07-08 17:56:00,88.2,74.0,30.06,SE,139,4.0,9.0,63,0.00,,,0.00,Wunderground v.1.15,2013-07-08 21:56:00,
2013-07-08 17:59:00,87.4,73.7,30.06,SE,128,4.0,10.0,64,0.00,,,0.00,Wunderground v.1.15,2013-07-08 21:59:00,
2013-07-08 18:02:00,87.4,73.7,30.06,East,92,4.0,4.0,64,0.00,,,0.00,Wunderground v.1.15,2013-07-08 22:02:00,
2013-07-08 18:04:00,87.6,73.9,30.06,SE,125,4.0,4.0,64,0.00,,,0.00,Wunderground v.1.15,2013-07-08 22:04:00,
2013-07-08 18:10:00,87.1,73.9,30.06,NE,45,3.0,3.0,65,0.00,,,0.00,Wunderground v.1.15,2013-07-08 22:10:00,
2013-07-08 18:11:00,87.1,73.9,30.06,ENE,68,3.0,3.0,65,0.00,,,0.00,Wunderground v.1.15,2013-07-08 22:11:00,
2013-07-08 18:12:00,87.2,73.5,30.06,East,83,3.0,3.0,64,0.00,,,0.00,Wunderground v.1.15,2013-07-08 22:12:00,
2013-07-08 18:17:00,87.1,73.4,30.06,East,98,3.0,6.0,64,0.00,,,0.00,Wunderground v.1.15,2013-07-08 22:17:00,
2013-07-08 18:18:00,87.1,73.4,30.06,East,82,3.0,6.0,64,0.00,,,0.00,Wunderground v.1.15,2013-07-08 22:18:00,
2013-07-08 18:23:00,86.6,72.5,30.06,ENE,65,4.0,10.0,63,0.00,,,0.00,Wunderground v.1.15,2013-07-08 22:23:00,
2013-07-08 18:25:00,85.8,71.7,30.07,ESE,108,5.0,10.0,63,0.00,,,0.00,Wunderground v.1.15,2013-07-08 22:25:00,
2013-07-08 18:26:00,85.4,71.8,30.07,ENE,66,5.0,10.0,64,0.00,,,0.00,Wunderground v.1.15,2013-07-08 22:26:00,
2013-07-08 18:28:00,84.7,72.5,30.07,East,96,5.0,10.0,67,0.00,,,0.00,Wunderground v.1.15,2013-07-08 22:28:00,
2013-07-08 18:31:00,83.9,73.5,30.07,ESE,105,6.0,13.0,71,0.00,,,0.00,Wunderground v.1.15,2013-07-08 22:31:00,
2013-07-08 18:34:00,82.7,73.6,30.07,SW,217,6.0,13.0,74,0.00,,,0.01,Wunderground v.1.15,2013-07-08 22:34:00,
2013-07-08 18:36:00,82.0,72.5,30.07,SE,142,5.0,13.0,73,0.00,,,0.01,Wunderground v.1.15,2013-07-08 22:36:00,
2013-07-08 18:40:00,81.3,72.6,30.07,East,89,4.0,4.0,75,0.00,,,0.01,Wunderground v.1.15,2013-07-08 22:40:00,
2013-07-08 18:43:00,81.2,71.7,30.07,ESE,108,4.0,13.0,73,0.00,,,0.01,Wunderground v.1.15,2013-07-08 22:43:00,
2013-07-08 18:47:00,81.2,71.3,30.07,East,101,3.0,13.0,72,0.00,,,0.01,Wunderground v.1.15,2013-07-08 22:47:00,
2013-07-08 18:49:00,81.3,71.8,30.07,SE,139,3.0,13.0,73,0.00,,,0.01,Wunderground v.1.15,2013-07-08 22:49:00,
2013-07-08 18:52:00,81.4,71.5,30.07,SSE,147,3.0,13.0,72,0.00,,,0.01,Wunderground v.1.15,2013-07-08 22:52:00,
2013-07-08 18:58:00,81.8,71.5,30.07,ENE,67,2.0,13.0,71,0.00,,,0.01,Wunderground v.1.15,2013-07-08 22:58:00,
2013-07-08 19:01:00,82.2,71.4,30.07,ENE,75,2.0,3.0,70,0.00,,,0.01,Wunderground v.1.15,2013-07-08 23:01:00,
2013-07-08 19:05:00,82.6,71.4,30.07,ENE,76,2.0,3.0,69,0.00,,,0.01,Wunderground v.1.15,2013-07-08 23:05:00,
2013-07-08 19:07:00,82.8,71.6,30.07,ESE,102,2.0,3.0,69,0.00,,,0.01,Wunderground v.1.15,2013-07-08 23:07:00,